Home > Time Zones > World Clock > Weather > Chad > Sarh > Past weeks

Flag for Chad Weather past 2 weeks in Sarh, Chad

Now
91 °F

Passing clouds.


Feels Like: 99 °F
Forecast: 77 / 94 °F
Wind: 5 mph from East

Location: Sarh Airport

Current Time: Jul 6, 2015 at 2:51:35 PM

Latest Report: Jul 6, 2015 at 2:00 PM


Visibility: N/A

Pressure: 29.92 "Hg

Humidity: 52%

Dew point: 72 °F

Location of SarhLocation

Historic Weather in Sarh — Graph

°F

Sarh temperature yesterday

Maximum temperature yesterday: 90 °F (at 2:00 PM)
Minimum temperature yesterday: 73 °F (at 12:00 AM)
Average temperature yesterday: 81 °F

Past Weeks' High & Low Weather Summary

 TemperatureHumidityPressure
High97 °F (Jun 25, 3:00 PM)100% (Jul 1, 5:00 AM)30.07 "Hg (Jul 1, 5:00 AM)
Low70 °F (Jul 1, 5:00 AM)39% (Jun 25, 3:00 PM)29.86 "Hg (Jun 29, 3:00 PM)
Average82 °F76%29.97 "Hg
* Reported Jun 21 2:00 PM — Jul 6 2:00 PM, Sarh, Weather by CustomWeather, © 2015

Note: Actual official high and low records may vary slightly from our data, if they occured in-between our weather recording intervals... More about our weather records

Advertising

Sarh weather history for previous 24 hours

 ConditionsComfort  
Time TempWeatherWind HumidityBarometerVisibility
2:00 PM
Mon, Jul 6
91 °FPassing clouds.5 mph52%29.92 "HgN/A
1:00 PM90 °FPassing clouds.2 mph59%29.98 "HgN/A
12:00 PM90 °FPassing clouds.2 mph52%29.98 "HgN/A
11:00 AM86 °FSunny.7 mph62%29.98 "Hg10 mi
10:00 AM84 °FSunny.5 mph70%30.01 "Hg10 mi
9:00 AM82 °FSunny.No wind74%30.01 "Hg10 mi
8:00 AM79 °FSunny.No wind84%30.01 "Hg10 mi
7:00 AM91 °FSunny.No wind52%29.98 "Hg10 mi
1:00 AM75 °FClear.5 mph94%29.95 "Hg10 mi
12:00 AM75 °FClear.5 mph94%29.95 "Hg10 mi
11:00 PM
Sun, Jul 5
77 °FClear.5 mph89%29.98 "Hg10 mi
10:00 PM77 °FClear.7 mph89%29.92 "Hg10 mi
9:00 PM79 °FClear.No wind84%29.92 "Hg10 mi
8:00 PM79 °FPassing clouds.No wind89%30.01 "HgN/A
7:00 PM81 °FPassing clouds.No wind84%29.92 "HgN/A
6:00 PM82 °FPassing clouds.2 mph79%29.92 "HgN/A
5:00 PM82 °FPassing clouds.5 mph79%29.92 "HgN/A
4:00 PM88 °FPassing clouds.No wind62%29.98 "HgN/A
2:00 PM90 °FScattered clouds.5 mph59%29.98 "HgN/A
Weather by CustomWeather, © 2015

See weather overviewHow to use our weather pages